Overview Statistics Trail Chart Weather Telemetry Raw packets
 

This is the latest recevied weather packets stored in our database for station/object EA1PYE-10. If no packets are shown the sender has not sent any weather packets the latest 10 day(s).

<< 10 11 12 13 14 15 16 >>
Time Temp. Humidity Pressure Rain* Wind** Luminosity Snow
1788067913 18.89° C 59% 1018.5 hPa - - - -
1788066113 18.89° C 59% 1018.6 hPa - - - -
1788064313 18.89° C 59% 1018.6 hPa - - - -
1788062513 18.33° C 60% 1018.6 hPa - - - -
1788060713 18.33° C 60% 1018.7 hPa - - - -
1788058913 18.33° C 60% 1018.8 hPa - - - -
1788057113 18.33° C 60% 1019 hPa - - - -
1788055312 18.89° C 60% 1019 hPa - - - -
1788053892 18.89° C 59% 1018.9 hPa - - - -
1788052091 18.89° C 60% 1019.1 hPa - - - -
1788050291 18.33° C 59% 1019.2 hPa - - - -
1788048491 18.33° C 60% 1019.3 hPa - - - -
1788046691 18.33° C 60% 1019.3 hPa - - - -
1788044891 18.33° C 60% 1019.6 hPa - - - -
1788043091 18.33° C 62% 1019.7 hPa - - - -
1788041291 18.33° C 64% 1019.8 hPa - - - -
1788039491 18.33° C 65% 1019.8 hPa - - - -
1788037691 18.33° C 65% 1019.8 hPa - - - -
1788035891 18.33° C 63% 1019.7 hPa - - - -
1788034091 18.33° C 59% 1019.7 hPa - - - -
1788032291 18.33° C 62% 1019.4 hPa - - - -
1788030491 17.78° C 63% 1019.2 hPa - - - -
1788028691 17.78° C 61% 1019.2 hPa - - - -
1788026891 17.78° C 62% 1019.1 hPa - - - -
1788025090 18.33° C 61% 1019.1 hPa - - - -

* Rain since midnight (hover to see other rain measurements)
** Current wind speed in m/s (hover to see current wind gust speed)